EW8735 Weather Reports


time (UTC)temp
C
wind
direction
speed
KPH
gust
KPH
rain 1hr
cm
rain 24hr
cm
rain mn
cm
humidity
%
barometer
mb
20260902070008 16 239 0.0 0.0 0.00 0.00 0.00 56 1006.0
20260902064505 16 241 0.0 0.0 0.00 0.00 0.00 57 1005.7
20260902063012 16 240 0.0 0.0 0.00 0.00 0.00 57 1005.6
20260902061503 16 239 0.0 0.0 0.00 0.00 0.00 55 1005.5
20260902060001 17 239 0.0 0.0 0.00 0.00 0.00 54 1005.4
20260902054501 16 235 0.0 0.0 0.00 0.00 0.00 53 1005.4
20260902053106 17 237 0.0 0.0 0.00 0.00 0.00 50 1005.3
20260902051600 18 234 0.0 0.0 0.00 0.00 0.00 48 1005.1
20260902050059 18 234 0.0 0.0 0.00 0.00 0.00 47 1005.1
20260902044601 18 234 0.0 0.0 0.00 0.00 0.00 44 1004.8
20260902043102 19 234 0.0 0.0 0.00 0.00 0.00 43 1004.6
20260902041556 20 245 0.0 0.0 0.00 0.00 0.00 44 1004.2
20260902040057 19 311 0.0 0.0 0.00 0.00 0.00 43 1003.9
20260902034605 19 316 0.0 0.0 0.00 0.00 0.00 42 1003.5
20260902033104 20 316 0.0 0.0 0.00 0.00 0.00 42 1003.3
20260902031554 20 316 0.0 0.0 0.00 0.00 0.00 41 1002.9
20260902030054 21 316 0.0 0.0 0.00 0.00 0.00 38 1002.7
20260902024553 22 316 0.0 0.0 0.00 0.00 0.00 37 1002.3
20260902023054 22 316 0.0 0.0 0.00 0.00 0.00 37 1002.0
20260902021552 23 316 0.0 0.0 0.00 0.00 0.00 38 1002.0
20260902020100 24 316 0.0 0.0 0.00 0.00 0.00 37 1001.9
20260902014552 25 316 0.0 0.0 0.00 0.00 0.00 37 1001.9
20260902013051 25 310 0.0 0.0 0.00 0.00 0.00 35 1001.8
20260902011551 26 60 0.0 0.0 0.00 0.00 0.00 34 1001.8
20260902010056 26 60 0.0 0.0 0.00 0.00 0.00 34 1001.7
20260902004551 26 310 0.0 0.0 0.00 0.00 0.00 34 1001.7
20260902003052 26 309 0.0 0.0 0.00 0.00 0.00 33 1001.5
20260902001556 27 306 0.0 0.0 0.00 0.00 0.00 32 1001.5
20260902000049 27 318 0.0 0.0 0.00 0.00 0.00 33 1001.5
20260901234559 27 318 0.0 0.0 0.00 0.00 0.00 32 1001.6
20260901233059 27 318 0.0 0.0 0.00 0.00 0.00 32 1001.6
20260901231550 27 318 0.0 0.0 0.00 0.00 0.00 31 1001.7
20260901230046 27 318 0.0 0.0 0.00 0.00 0.00 31 1001.8
20260901224545 27 316 0.0 0.0 0.00 0.00 0.00 32 1002.0
20260901223044 27 316 0.0 0.0 0.00 0.00 0.00 35 1002.1
20260901221538 26 317 0.0 0.0 0.00 0.00 0.00 35 1002.3
20260901220054 25 314 0.0 0.0 0.00 0.00 0.00 36 1002.3
20260901214530 24 314 0.0 0.0 0.00 0.00 0.00 38 1002.5
20260901213029 24 314 0.0 0.0 0.00 0.00 0.00 39 1002.7
20260901211534 24 314 0.0 0.0 0.00 0.00 0.00 40 1002.7
20260901210023 23 314 0.0 0.0 0.00 0.00 0.00 39 1002.8
20260901204524 23 317 0.0 0.0 0.00 0.00 0.00 39 1003.3
20260901203030 23 317 0.0 0.0 0.00 0.00 0.00 39 1003.4
20260901201516 23 318 0.0 0.0 0.00 0.00 0.00 37 1003.5
20260901200016 22 317 0.0 0.0 0.00 0.00 0.00 40 1003.7
20260901194512 22 317 0.0 0.0 0.00 0.00 0.00 43 1004.0
20260901193010 22 319 0.0 0.0 0.00 0.00 0.00 45 1004.1
20260901191507 21 354 0.0 0.0 0.00 0.00 0.00 42 1003.6
20260901190004 21 4 0.0 0.0 0.00 0.00 0.00 42 1003.4
20260901184508 20 4 0.0 0.0 0.00 0.00 0.00 42 1004.1
20260901183003 21 4 0.0 0.0 0.00 0.00 0.00 40 1004.1
20260901181506 21 341 0.0 0.0 0.00 0.00 0.00 42 1004.4
20260901180100 20 341 0.0 0.0 0.00 0.00 0.00 43 1004.5
20260901174557 20 341 0.0 0.0 0.00 0.00 0.00 42 1004.1
20260901173054 19 4 0.0 0.0 0.00 0.00 0.00 46 1004.3
20260901171555 19 91 0.0 0.0 0.00 0.00 0.00 46 1004.5
20260901170113 18 108 0.0 0.0 0.00 0.00 0.00 43 1004.7
20260901164551 18 85 0.0 0.0 0.00 0.00 0.00 44 1004.5
20260901163046 18 85 0.0 0.0 0.00 0.00 0.00 45 1004.4
20260901161550 18 85 0.0 0.0 0.00 0.00 0.00 46 1003.7
20260901160051 18 85 0.0 0.0 0.00 0.00 0.00 48 1004.0
20260901154547 17 41 0.0 0.0 0.00 0.00 0.00 48 1004.0
20260901153039 16 46 0.0 0.0 0.00 0.00 0.00 49 1004.1
20260901151539 15 41 0.0 0.0 0.00 0.00 0.00 51 1004.4
20260901150055 15 100 0.0 0.0 0.00 0.00 0.00 49 1004.3
20260901144540 15 34 0.0 0.0 0.00 0.00 0.00 51 1004.1
20260901143034 15 10 0.0 0.0 0.00 0.00 0.00 54 1003.8
20260901141534 14 17 0.0 0.0 0.00 0.00 0.00 52 1003.7
20260901140033 13 17 0.0 0.0 0.00 0.00 0.00 55 1003.6
20260901134535 13 19 0.0 0.0 0.00 0.00 0.00 53 1003.4
20260901133032 13 19 0.0 0.0 0.00 0.00 0.00 51 1003.3
20260901131543 13 19 0.0 0.0 0.00 0.00 0.00 51 1003.3
20260901130031 13 19 0.0 0.0 0.00 0.00 0.00 51 1003.2
20260901124530 13 19 0.0 0.0 0.00 0.00 0.00 51 1003.2
20260901123033 13 19 0.0 0.0 0.00 0.00 0.00 54 1003.2
20260901121526 13 19 0.0 0.0 0.00 0.00 0.00 51 1003.1
20260901120023 14 19 0.0 0.0 0.00 0.00 0.00 49 1003.1
20260901114536 14 19 0.0 0.0 0.00 0.00 0.00 49 1003.0
20260901113023 14 19 0.0 0.0 0.00 0.00 0.00 49 1003.1
20260901111519 14 19 0.0 0.0 0.00 0.00 0.00 52 1003.0
20260901110017 15 19 0.0 0.0 0.00 0.00 0.00 51 1003.1
20260901104515 15 19 0.0 0.0 0.00 0.00 0.00 48 1003.3
20260901103017 15 19 0.0 0.0 0.00 0.00 0.00 49 1003.5
20260901101510 16 19 0.0 0.0 0.00 0.00 0.00 47 1003.6
20260901100010 16 19 0.0 0.0 0.00 0.00 0.00 48 1003.6
20260901094517 15 19 0.0 0.0 0.00 0.00 0.00 47 1003.6
20260901093007 15 19 0.0 0.0 0.00 0.00 0.00 47 1003.8
20260901091506 15 19 0.0 0.0 0.00 0.00 0.00 47 1003.9
20260901090007 15 19 0.0 0.0 0.00 0.00 0.00 45 1003.9
20260901084503 15 19 0.0 0.0 0.00 0.00 0.00 45 1003.9
20260901083002 15 19 0.0 0.0 0.00 0.00 0.00 44 1004.0
20260901081600 16 19 0.0 0.0 0.00 0.00 0.00 43 1004.0
20260901080059 16 19 0.0 0.0 0.00 0.00 0.00 43 1004.0
20260901074601 16 19 0.0 0.0 0.00 0.00 0.00 43 1003.8
20260901073054 16 19 0.0 0.0 0.00 0.00 0.00 41 1003.8
20260901071553 16 19 0.0 0.0 0.00 0.00 0.00 40 1003.8